CZ-6A DEB, 60803

Orbit data source: Space-Track

CZ-6A DEB, 60803 is space debris in LEO originally from a launch on Tue, 06 Aug 2024 UTC launched from the Taiyaun Space Center, China (TSC). Debris objects in space refer to the collection of defunct objects orbiting the Earth. Examples of debris include non-operational satellites, rocket bodies, and fragments generated from explosions, collisions, or faulty payload assembly.

Loading next visibility...
Identifier
60803, 2024-140GE
Orbit
LEO
Country
Flag of CNCN / PRC
Related business
Manufacturer
SAST
Mission
Spacecraft
Bus & Motor
Unknown
Mass
Unknown
Launch date (UTC)
2024-08-06 (2 years ago)
Launch vehicle
Unknown
Launch site
Taiyaun Space Center, China (TSC)
Object type
Payload
Rocket body
Debris
Shape & HBR
Unknown shape, 0.1 m
Radar Cross Section
Medium (>0.1 m² and <1 m²)

Expand to show TLE details & history
Last TLE update: 11 hours ago

TLE from 11 hours ago
0 CZ-6A DEB
1 60803U 24140GE  26171.40310390  .00130570  00000-0  23698-2 0  9991
2 60803  89.6123 320.1363 0054246  36.3402 324.1521 15.47487079101816
Epoch: 2026-06-20T09:40Z
TLE epoch observation values (Epoch: 2026-06-20T09:40:28.176Z)
Latitude
-0.00013°
Longitude
-93.59933°
Altitude
397.468 km
Speed
7.689 km/s
True Right ascension
21h 20m 32s
True Declination
0° 00' 00"
Sunlit
Object was in full shadow at epoch
Visualization orbit readout
Latitude
Unknown
Longitude
Unknown
Altitude
Unknown
Speed
Unknown
Apparent Right ascension
Unknown
Apparent Declination
Unknown
Sunlit
N/A
Visualization observer readout
Local Sidereal Time
07:23:03
Azimuth
Unknown
Elevation
Unknown
Doppler factor
Unknown
Orbital elements
Apogee altitude
457.73 km
Perigee altitude
383.967 km
Semi-major axis
6,798.985 km
Eccentricity
0.00542
Inclination
89.6123°
RAAN
320.1363°
Arg. of periapsis
36.3402°
True anomaly
323.78605°
Mean anomaly
324.1521°
Eccentric anomaly
323.96928°
Mean motion
3.87148 °/min
Orbital period
92.99 mins
BSTAR
0.0023698
Loading maneuver chart data...
Computing Atmospheric mass density...
Loading historical data...
Loading historical data...
Loading historical data...
Loading historical data...
Loading historical data...
Loading historical data...
Loading historical data...

Documentation

Showing up to 5 results
|